Destin, Florida, United States (32540)
Lat: 30.39N, Lon: 86.5W
Wx Zone: FLZ006
Local Info
Past Weather Observations for Sunday, July 27, 2014

NOTE: This archive is for the closest National Weather Service station to Destin. Information may differ from the station used for current weather conditions.

Click here for Long-term Archive

Time Weather Temperature Dewpoint Humidity Pressure Winds Precip Visibility
23:53
Clear
84°F / 29°C 81°F / 27°C 89% 30.01 in
(1016 mb)
Variable 6.9 mph
(Variable 11 kph)
- 10SM
22:53
Clear
84°F / 29°C 79°F / 26°C 84% 30.04 in
(1017 mb)
SSW 8.1 mph
(SSW 13 kph)
- 10SM
21:53
Clear
84°F / 29°C 79°F / 26°C 84% 30.04 in
(1017 mb)
Variable 4.6 mph
(Variable 7 kph)
- 10SM
20:53
Clear
84°F / 29°C 79°F / 26°C 84% 30.04 in
(1017 mb)
SSW 6.9 mph
(SSW 11 kph)
- 10SM
19:53
Clear
84°F / 29°C 79°F / 26°C 84% 30.04 in
(1017 mb)
Variable 5.8 mph
(Variable 9 kph)
- 10SM
18:53
Clear
84°F / 29°C 77°F / 25°C 79% 30.01 in
(1016 mb)
SSW 8.1 mph
(SSW 13 kph)
- 10SM
17:53
Clear
86°F / 30°C 77°F / 25°C 75% 30.01 in
(1016 mb)
SSW 10.4 mph
(SSW 17 kph)
- 10SM
16:53
Clear
86°F / 30°C 77°F / 25°C 75% 30.01 in
(1016 mb)
SSW 8.1 mph
(SSW 13 kph)
- 10SM
15:53
Clear
88°F / 31°C 79°F / 26°C 75% 30.04 in
(1017 mb)
SSW 10.4 mph
(SSW 17 kph)
- 10SM
14:53
Clear
88°F / 31°C 79°F / 26°C 75% 30.04 in
(1017 mb)
SW 11.5 mph
(SW 19 kph)
- 10SM
13:53
Clear
90°F / 32°C 79°F / 26°C 71% 30.04 in
(1017 mb)
SSW 9.2 mph
(SSW 15 kph)
- 10SM
12:53
Clear
90°F / 32°C 79°F / 26°C 71% 30.04 in
(1017 mb)
SW 8.1 mph
(SW 13 kph)
- 10SM
11:53
Clear
90°F / 32°C 79°F / 26°C 71% 30.06 in
(1018 mb)
SW 8.1 mph
(SW 13 kph)
- 10SM
10:53
Clear
90°F / 32°C 79°F / 26°C 71% 30.09 in
(1019 mb)
Variable 3.5 mph
(Variable 6 kph)
- 10SM
09:53
Partly Cloudy
90°F / 32°C 79°F / 26°C 71% 30.09 in
(1019 mb)
Variable 4.6 mph
(Variable 7 kph)
- 10SM
08:53
Partly Cloudy
88°F / 31°C 79°F / 26°C 75% 30.09 in
(1019 mb)
NW 5.8 mph
(NW 9 kph)
- 10SM
08:37
Partly Cloudy
88°F / 31°C 79°F / 26°C 75% 30.09 in
(1019 mb)
NW 8.1 mph
(NW 13 kph)
- 10SM
08:13
Mostly Cloudy
86°F / 30°C 81°F / 27°C 84% 30.09 in
(1019 mb)
Variable 3.5 mph
(Variable 6 kph)
- 10SM
07:53
Mostly Cloudy
84°F / 29°C 79°F / 26°C 84% 30.09 in
(1019 mb)
SSW 8.1 mph
(SSW 13 kph)
- 10SM
07:50
Mostly Cloudy
84°F / 29°C 81°F / 27°C 89% 30.09 in
(1019 mb)
Variable 4.6 mph
(Variable 7 kph)
- 10SM
06:53
Partly Cloudy
84°F / 29°C 81°F / 27°C 89% 30.06 in
(1018 mb)
Variable 4.6 mph
(Variable 7 kph)
- 10SM
05:53
Clear
84°F / 29°C 81°F / 27°C 89% 30.06 in
(1018 mb)
Variable 3.5 mph
(Variable 6 kph)
- 10SM
04:53
Partly Cloudy
82°F / 28°C 81°F / 27°C 94% 30.04 in
(1017 mb)
Variable 5.8 mph
(Variable 9 kph)
- 10SM
04:46
Partly Cloudy
82°F / 28°C 81°F / 27°C 94% 30.04 in
(1017 mb)
SSW 3.5 mph
(SSW 6 kph)
- 10SM
04:00
Mostly Cloudy
82°F / 28°C 81°F / 27°C 94% 30.04 in
(1017 mb)
Variable 3.5 mph
(Variable 6 kph)
- 10SM
03:53
Partly Cloudy
82°F / 28°C 81°F / 27°C 94% 30.04 in
(1017 mb)
Variable 3.5 mph
(Variable 6 kph)
- 10SM
02:53
Clear
82°F / 28°C 81°F / 27°C 94% 30.04 in
(1017 mb)
SSW 3.5 mph
(SSW 6 kph)
- 10SM
01:53
Clear
82°F / 28°C 79°F / 26°C 89% 30.04 in
(1017 mb)
SSW 4.6 mph
(SSW 7 kph)
- 10SM
00:53
Clear
82°F / 28°C 79°F / 26°C 89% 30.04 in
(1017 mb)
Variable 4.6 mph
(Variable 7 kph)
- 10SM
Time Weather Temperature Dewpoint Humidity Pressure Winds Precip Visibility


Weather for websites

WeatherForYou.com, LLC is not responsible for any damages or problems caused by this service. Current weather conditions are obtained from the closest station including government and personal stations which may have varying degrees of accuracy. Weather forecasts are derived from the NOAA NDFD. Like all things, this site belongs to Jesus Christ... He just trusts me to maintain it. If you have any questions or comments email webmaster@weatherforyou.com

Copyright © 2014, WeatherForYou.com LLC. All rights reserved.